FICHTELBE Weather Reports


Display with metric or nautical units.
time (UTC)temp
F
wind
direction
speed
MPH
gust
MPH
rain 1hr
in
rain 24hr
in
rain mn
in
humidity
%
barometer
mb
20260902222039 48 300 10.0 0.0 0.00 0.00 0.00 93
20260902211639 50 290 16.0 0.0 0.00 0.00 0.00 87
20260902201640 50 290 17.0 0.0 0.00 0.00 0.00 87
20260902191840 52 280 16.0 0.0 0.00 0.00 0.00 81
20260902181639 54 280 22.0 0.0 0.00 0.00 0.00 76
20260902171839 57 270 15.0 0.0 0.00 0.00 0.00 76
20260902162040 59 280 14.0 0.0 0.00 0.00 0.00 67
20260902151638 63 280 14.0 0.0 0.00 0.00 0.00 59
20260902141840 64 270 14.0 22.0 0.00 0.00 0.00 59
20260902131839 61 270 16.0 0.0 0.00 0.00 0.00 63
20260902121639 61 270 10.0 0.0 0.00 0.00 0.00 67
20260902111839 59 250 10.0 17.0 0.00 0.00 0.00 67
20260902101938 61 250 13.0 22.0 0.00 0.00 0.00 67
20260902091639 57 260 9.0 0.0 0.00 0.00 0.00 71
20260902081839 55 240 10.0 0.0 0.00 0.00 0.00 76
20260902071739 52 260 10.0 0.0 0.00 0.00 0.00 93
20260902061639 50 270 14.0 0.0 0.00 0.00 0.00 87
20260902051838 48 270 16.0 0.0 0.00 0.00 0.00 93
20260902041939 48 270 16.0 0.0 0.00 0.00 0.00 93
20260902031639 46 280 13.0 0.0 0.00 0.00 0.00 99
20260902021838 48 290 14.0 0.0 0.00 0.00 0.00 93
20260902011839 48 290 13.0 0.0 0.00 0.00 0.00 99
20260902001639 50 300 12.0 0.0 0.00 0.00 0.00 93
20260901231823 50 290 17.0 0.0 0.00 0.00 0.00 87